Location: Newark
(40.0667°N, 18.0500°E)
Time: 05:14:55
(UTC+00:00)

N. Korean satellite - Pass Details

Date: 31 January 2020
Orbit: 456 x 505 km, 97.2° (Epoch: 20 February)

Event Time Altitude Azimuth Distance (km) Brightness Sun altitude
Rises 16:52:46 0° 212° (SSW) 2,460 10.9 -9.5°
Reaches altitude 10° 16:55:57 10° 246° (WSW) 1,597 10.7 -10.1°
Maximum altitude 16:57:15 12° 268° (W) 1,496 10.4 -10.4°
Drops below altitude 10° 16:58:34 10° 291° (WNW) 1,607 10.1 -10.6°
Sets 17:01:49 0° 325° (NW) 2,497 10.5 -11.2°
